Regional Weather Roundup
Issued by NWS Charleston, SC

Current Version | Previous Version | Text Only | Print | Product List | Glossary On
Versions: 1 2 3 4 5 6 7 8 9 10 11 12 13 14 15 16 17 18 19 20 21 22 23 24 25 26 27 28 29 30 31 32 33 34 35 36 37 38 39 40 41 42 43 44 45 46 47 48 49 50
000
ASUS42 KCHS 291925
RWRCHS

REGIONAL WEATHER ROUNDUP
NATIONAL WEATHER SERVICE CHARLESTON SC
300 PM EDT TUE JUL 29 2014

NOTE: "FAIR" INDICATES FEW OR NO CLOUDS BELOW 12,000 FEET WITH NO
SIGNIFICANT WEATHER AND/OR OBSTRUCTIONS TO VISIBILITY.

NOT ALL STATIONS ARE QUALITY CONTROLLED BY THE NATIONAL
WEATHER SERVICE. USE DATA WITH CAUTION...ESPECIALLY
DEWPOINT OBSERVATIONS.

SCZ027-030-031-034>040-042>050-292000-
...SOUTH CAROLINA...

CITY           SKY/WX    TMP DP  RH WIND       PRES   REMARKS
N CHARLESTON   MOSUNNY   89  61  38 CALM      29.90F
WATERFRONT PRK   N/A     86 N/A N/A E5          N/A
FORT JOHNSON   NOT AVBL
MOUNT PLEASANT FAIR      88  72  58 CALM      29.89F HX  94
JOHNS ISLAND   PTCLDY    90  66  45 CALM      29.90F HX  92
PINOPOLIS        N/A     84  64  51 N6        29.85R
MONCKS CORNER    N/A     88  68  51 N5        29.90F HX  91
SUMMERVILLE    FAIR      88  63  42 SW5       29.91F
BEAUFORT MCAS  PTSUNNY   88  68  51 S6        29.90F HX  91
BEAUFORT ARPT  CLOUDY    86  70  58 CALM      29.90F HX  90
HILTON HEAD IS MOSUNNY   84  72  65 N6        29.92F
GEORGETOWN     NOT AVBL
WALTERBORO       N/A     88  55  33 CALM      29.91F
ORANGEBURG     PTSUNNY   86  59  39 NW7       29.93S
BARNWELL       FAIR      84  59  42 CALM      29.93S
AIKEN          FAIR      84  63  48 W3        29.97F
MANNING        MOCLDY    86  61  42 CALM      29.91F
KINGSTREE      NOT AVBL
COLUMBIA       PTSUNNY   86  55  34 VRB3      29.92F
SUMTER         PTSUNNY   85  58  40 W6        29.91F
FLORENCE       MOSUNNY   85  60  42 N6        29.91F
MYRTLE BEACH   MOSUNNY   88  64  45 W7        29.90F
N MYRTLE BEACH SUNNY     87  64  46 CALM      29.89F

$$

GAZ063-065-086>088-099>101-113>116-118-119-134-136>141-150-292000-
...GEORGIA...

CITY           SKY/WX    TMP DP  RH WIND       PRES   REMARKS
SAVANNAH ARPT  MOSUNNY   88  62  41 CALM      29.90
HUNTER AAF     SUNNY     90  65  43 VRB5      29.88F HX  92
FORT STEWART   MOSUNNY   90  64  41 NW8       29.90F HX  91
STATESBORO     NOT AVBL
SYLVANIA       MOCLDY    87  67  52 CALM      29.92F HX  90
CLAXTON        FAIR      90  63  40 CALM      29.91F HX  90
THOMSON        MOSUNNY   86  66  51 SW7       29.98F
AUGUSTA-BUSH   MOSUNNY   86  59  39 VRB6      29.92F
AUGUSTA-DANIEL PTSUNNY   88  55  32 VRB7G16   29.94F
SWAINSBORO     FAIR      91  63  38 N5        29.93F HX  92
VIDALIA          N/A     90  61  37 W5        29.92F
ALMA           MOSUNNY   91  57  31 VRB6      29.92F
WAYCROSS       SUNNY     97  63  32 W8G20     29.91S HX  98
JESUP          FAIR      95  61  31 W8        29.90F HX  95
BRUNSWICK      MOSUNNY   93  57  29 W10       29.90S HX  92
SAINT SIMONS   PTSUNNY   91  67  44 VRB7      29.89F HX  94

$$

SCZ027-028-034-036>038-045-046-048>050-GAZ119-141-292000-
...LAKE AND SUPPLEMENTAL COASTAL OBSERVATIONS...

STATION/POSITION TIME  TEMP    WIND        PRES    WAVE   SWELL
                       AIR SEA DIR/SP/G            HT/PER HT/PER/DIR
                 (UTC) (F)     (DEG/KT/KT) (MB)    (FT/S) (FT/S/D)
UPR LAKE MARION  NOT AVBL
WINYAH BAY       1900   83     100/  6     1012.0S
LAKE MURRAY      1900   82     210/  5/  5 1013.2S
ACE BASIN NERRS  1900   86     190/  1     1013.0S
FORT PULASKI     1900   83      80/  8/  9 1012.7F
SAPELO ISLAND    1900   92     130/  6     1013.0S

$$

ANZ835-935-AMZ111-154-330-350-352-354-374-450-454-472-292000-
...C-MAN AND BUOY OBSERVATIONS...

STATION/POSITION TIME  TEMP    WIND        PRES    WAVE   SWELL
                       AIR SEA DIR/SP/G            HT/PER HT/PER/DIR
                 (UTC) (F)     (DEG/KT/KT) (MB)    (FT/S) (FT/S/D)
FOLLY BEACH CMAN 1900   82     100/  6/  8 1013.0F
BUOY 41004       1900   81 84   20/ 10/ 12 1011.7F   4/ 6   3/ 6
BUOY 41008       1900   82 87   20/  6/  8 1012.6F   2/ 4   2/120/ 8
5E ST. MARYS GA  1900      87                N/A     1/ 9
FRYING PAN BUOY  NOT AVBL
BUOY 41025       1900          VRB 14/ 16  1012.4R   4/ 8   3/160/ 8
CAPE LOOKOUT NC  1900   78      50/ 12/ 12 1012.4F
BUOY 41002       1841   80 81  190/ 19/ 23 1013.5F   6/ 8   3/240/ 8
BUOY 41010       1900   84 84  250/ 12/ 14 1014.0F   5/ 6   3/100/ 9
BUOY 41012       NOT AVBL
ST AUGUSTINE FL  1900   83      90/  7/  8 1013.5F
CAPERS NEARSHORE 1800   83      60/  6/  8   N/A
FRIPP NEARSHORE  NOT AVBL


$$


USA.gov is the U.S. government's official web portal to all federal, state and local government web resources and services.